College Park, MD

5:49 AM EST on December 16, 2019 (GMT -0500)
College Park

Weather History for KCGS - October, 2019

Change the Weather History Date:

Wednesday, October 2, 2019

  Actual Average Record
Temperature  
Mean Temperature 80 °F -  
Max Temperature 94 °F 73 °F 94 °F (2019)
Min Temperature 67 °F 54 °F 38 °F (1960)
Cooling Degree Days 16    
Growing Degree Days 30 (Base 50)    
Moisture  
Dew Point 62 °F    
Average Humidity 55    
Maximum Humidity 94    
Minimum Humidity 27    
Precipitation  
Precipitation 0.00 in - - ()
Sea Level Pressure  
Sea Level Pressure 29.89 in    
Wind  
Wind Speed 2 mph (WSW)    
Max Wind Speed 14 mph    
Max Gust Speed 22 mph    
Visibility 10 miles    
Events      
Averages and records for this station are not official NWS values.
T = Trace of Precipitation, MM = Missing Value Source: NWS Daily Summary

Daily Weather History Graph

Daily Weather History Graph

Search for Another Location

Airport or City:

Astronomy

Oct. 02, 2019 Rise Set
Actual Time 7:04 AM EDT 6:49 PM EDT
Civil Twilight 6:37 AM EDT 7:15 PM EDT
Nautical Twilight 6:06 AM EDT 7:46 PM EDT
Astronomical Twilight 5:35 AM EDT 8:17 PM EDT
Moon 11:25 AM EDT (10/2) 9:43 PM EDT (10/2)
Length of Visible Light 12h 37m
Length of Day
11h 44m
Waxing Crescent, 20% of the Moon is Illuminated
Oct 2
Waxing Crescent
Oct 5
First Quarter
Oct 13
Full
Oct 21
Last Quarter
Oct 27
New

Hourly Weather History & Observations

Time (EDT) Temp. Heat Index Dew Point Humidity Pressure Visibility Wind Dir Wind Speed Gust Speed Precip Events Conditions
12:03 AM 76.5 °F - 63.1 °F 63% 29.95 in 10.0 mi Calm Calm - N/A   Clear
12:23 AM 76.1 °F - 63.5 °F 65% 29.95 in 10.0 mi South 3.5 mph - N/A   Clear
12:43 AM 75.7 °F - 63.3 °F 65% 29.94 in 10.0 mi South 3.5 mph - N/A   Clear
1:03 AM 75.4 °F - 63.3 °F 66% 29.94 in 10.0 mi SSW 4.6 mph - N/A   Clear
1:23 AM 75.6 °F - 63.5 °F 66% 29.94 in 10.0 mi SSW 3.5 mph - N/A   Clear
1:43 AM 75.6 °F - 63.5 °F 66% 29.93 in 10.0 mi South 3.5 mph - N/A   Clear
2:03 AM 75.2 °F - 63.5 °F 67% 29.93 in 10.0 mi South 3.5 mph - N/A   Clear
2:23 AM 74.8 °F - 63.7 °F 68% 29.92 in 10.0 mi Calm Calm - N/A   Clear
2:43 AM 74.7 °F - 63.7 °F 69% 29.91 in 10.0 mi Calm Calm - N/A   Clear
3:03 AM 74.3 °F - 63.7 °F 69% 29.91 in 10.0 mi Calm Calm - N/A   Clear
3:23 AM 74.1 °F - 63.7 °F 70% 29.91 in 10.0 mi Calm Calm - N/A   Clear
3:43 AM 73.6 °F - 63.7 °F 71% 29.92 in 10.0 mi Calm Calm - N/A   Clear
4:23 AM 73.4 °F - 63.9 °F 72% 29.92 in 10.0 mi Calm Calm - N/A   Clear
4:43 AM 71.1 °F - 63.5 °F 77% 29.92 in 10.0 mi Calm Calm - N/A   Clear
5:03 AM 70.2 °F - 63.3 °F 79% 29.92 in 10.0 mi Calm Calm - N/A   Clear
5:23 AM 68.5 °F - 65.8 °F 91% 29.92 in 10.0 mi Calm Calm - N/A   Clear
5:43 AM 68.5 °F - 66.6 °F 93% 29.92 in 10.0 mi Calm Calm - N/A   Clear
6:03 AM 68.9 °F - 66.9 °F 93% 29.92 in 10.0 mi Calm Calm - N/A   Clear
6:23 AM 67.8 °F - 65.8 °F 93% 29.92 in 7.0 mi Calm Calm - N/A   Clear
6:43 AM 68.0 °F - 66.2 °F 94% 29.93 in 10.0 mi Calm Calm - N/A   Clear
7:03 AM - - - N/A% 29.93 in 7.0 mi Calm Calm - N/A   Clear
7:43 AM - - - N/A% 29.93 in 10.0 mi Calm Calm - N/A   Clear
8:03 AM 72.5 °F - 70.5 °F 93% 29.93 in 10.0 mi Calm Calm - N/A   Scattered Clouds
8:23 AM 73.4 °F - 67.6 °F 82% 29.94 in 10.0 mi Calm Calm - N/A   Scattered Clouds
8:43 AM 74.8 °F - 65.3 °F 72% 29.94 in 10.0 mi Calm Calm - N/A   Scattered Clouds
9:03 AM 76.3 °F - 65.5 °F 69% 29.94 in 10.0 mi Calm Calm - N/A   Scattered Clouds
9:23 AM 78.1 °F - 65.8 °F 66% 29.93 in 10.0 mi SW 3.5 mph - N/A   Clear
9:43 AM 79.3 °F - 66.0 °F 64% 29.93 in 10.0 mi SSW 3.5 mph - N/A   Clear
10:03 AM 80.8 °F 82.8 °F 65.8 °F 60% 29.92 in 10.0 mi Calm Calm - N/A   Clear
10:23 AM 83.1 °F 85.4 °F 66.2 °F 57% 29.92 in 10.0 mi SSW 3.5 mph - N/A   Clear
10:43 AM 85.1 °F 87.1 °F 65.7 °F 52% 29.91 in 10.0 mi SW 4.6 mph - N/A   Scattered Clouds
11:03 AM 87.4 °F 89.1 °F 65.1 °F 47% 29.91 in 10.0 mi West 5.8 mph - N/A   Scattered Clouds
11:23 AM 90.1 °F 90.9 °F 63.0 °F 40% 29.91 in 10.0 mi West 4.6 mph - N/A   Mostly Cloudy
11:43 AM 90.9 °F 91.3 °F 61.7 °F 38% 29.91 in 10.0 mi West 9.2 mph 17.3 mph N/A   Scattered Clouds
12:03 PM 91.8 °F 91.5 °F 60.8 °F 35% 29.90 in 10.0 mi West 8.1 mph - N/A   Scattered Clouds
12:23 PM 91.9 °F 91.2 °F 59.4 °F 33% 29.90 in 10.0 mi WNW 8.1 mph - N/A   Clear
12:43 PM 91.9 °F 90.8 °F 58.3 °F 32% 29.89 in 10.0 mi WSW 10.4 mph - N/A   Clear
1:03 PM 93.4 °F 91.5 °F 56.1 °F 28% 29.88 in 10.0 mi West 12.7 mph 20.7 mph N/A   Scattered Clouds
1:23 PM 93.4 °F 91.5 °F 55.9 °F 28% 29.87 in 10.0 mi West 13.8 mph 21.9 mph N/A   Scattered Clouds
1:43 PM 94.6 °F 92.9 °F 55.8 °F 27% 29.87 in 10.0 mi West 10.4 mph 20.7 mph N/A   Scattered Clouds
2:03 PM 92.8 °F 91.4 °F 56.8 °F 30% 29.86 in 10.0 mi WNW 5.8 mph 17.3 mph N/A   Scattered Clouds
2:23 PM 92.5 °F 91.0 °F 57.2 °F 30% 29.86 in 10.0 mi West 10.4 mph 20.7 mph N/A   Clear
2:43 PM 92.3 °F 91.0 °F 57.6 °F 31% 29.85 in 10.0 mi West 9.2 mph 16.1 mph N/A   Clear
3:03 PM 92.8 °F 91.4 °F 57.2 °F 30% 29.85 in 10.0 mi WSW 9.2 mph 16.1 mph N/A   Scattered Clouds
3:23 PM 93.9 °F 92.6 °F 57.6 °F 29% 29.85 in 10.0 mi West 6.9 mph - N/A   Clear
3:43 PM 92.7 °F 91.5 °F 57.6 °F 31% 29.84 in 10.0 mi WNW 10.4 mph - N/A   Clear
4:03 PM 94.1 °F 93.1 °F 58.5 °F 30% 29.84 in 10.0 mi West 8.1 mph - N/A   Scattered Clouds
4:23 PM 92.8 °F 91.7 °F 58.1 °F 31% 29.83 in 10.0 mi West 6.9 mph - N/A   Scattered Clouds
4:43 PM 92.1 °F 91.1 °F 58.1 °F 32% 29.83 in 10.0 mi WSW 6.9 mph - N/A   Clear
5:03 PM 91.8 °F 90.9 °F 58.6 °F 33% 29.83 in 10.0 mi West 4.6 mph - N/A   Clear
5:23 PM 91.2 °F 90.5 °F 59.2 °F 34% 29.82 in 10.0 mi Calm Calm - N/A   Clear
5:43 PM 91.6 °F 90.7 °F 59.0 °F 33% 29.82 in 10.0 mi Calm Calm - N/A   Clear
6:03 PM 90.9 °F 90.0 °F 58.8 °F 34% 29.82 in 10.0 mi West 3.5 mph - N/A   Clear
6:23 PM 90.3 °F 89.6 °F 59.0 °F 35% 29.82 in 10.0 mi Calm Calm - N/A   Clear
6:43 PM 87.4 °F 87.2 °F 60.3 °F 40% 29.83 in 10.0 mi Calm Calm - N/A   Clear
7:03 PM 83.3 °F 84.1 °F 62.4 °F 49% 29.84 in 10.0 mi Calm Calm - N/A   Clear
7:23 PM 88.5 °F 87.5 °F 58.1 °F 36% 29.84 in 10.0 mi Calm Calm - N/A   Clear
7:43 PM 83.1 °F 83.5 °F 61.0 °F 47% 29.85 in 10.0 mi Calm Calm - N/A   Clear
8:03 PM 80.1 °F 81.4 °F 62.4 °F 55% 29.85 in 10.0 mi Calm Calm - N/A   Clear
8:23 PM 80.1 °F 81.2 °F 62.2 °F 54% 29.86 in 10.0 mi Calm Calm - N/A   Clear
8:43 PM 78.4 °F - 62.6 °F 58% 29.86 in 10.0 mi Calm Calm - N/A   Clear
9:03 PM 77.2 °F - 63.7 °F 63% 29.87 in 10.0 mi Calm Calm - N/A   Clear
9:23 PM 77.4 °F - 62.6 °F 60% 29.88 in 10.0 mi Calm Calm - N/A   Clear
9:43 PM 75.9 °F - 63.3 °F 65% 29.88 in 10.0 mi Calm Calm - N/A   Scattered Clouds
10:03 PM 76.1 °F - 63.9 °F 66% 29.88 in 10.0 mi Calm Calm - N/A   Mostly Cloudy
10:23 PM 77.0 °F - 63.1 °F 62% 29.89 in 10.0 mi Calm Calm - N/A   Overcast
10:43 PM 76.5 °F - 63.3 °F 64% 29.89 in 10.0 mi Calm Calm - N/A   Overcast
11:03 PM 77.0 °F - 63.5 °F 63% 29.89 in 10.0 mi Calm Calm - N/A   Overcast
11:23 PM 76.1 °F - 63.1 °F 64% 29.89 in 10.0 mi Calm Calm - N/A   Overcast
11:43 PM 76.6 °F - 63.5 °F 64% 29.89 in 10.0 mi Calm Calm - N/A   Overcast